{"data":{"norad_id":68382,"epoch":"2026-09-19T22:13:16.502016Z","epoch_age_seconds":97223,"freshness":"FRESH","line1":"1 68382U 26063C   26262.92588544  .00015506  00000+0  48160-3 0  9995","line2":"2 68382  97.2856  43.8406 0000752 119.9625 240.1692 15.33447529 27666","mean_motion":15.33447529,"eccentricity":7.52e-5,"inclination_deg":97.2856,"raan_deg":43.8406,"arg_perigee_deg":119.9625,"mean_anomaly_deg":240.1692,"bstar":0.0004816,"rev_number":2766,"period_min":93.906049784374,"perigee_km":465.0210057805,"apogee_km":466.05029414705,"semimajor_km":6843.6726499638,"source":"CELESTRAK","updated_at":"2026-09-20T09:00:43.892385Z"}}